STARLINK-34271

Last updated on Thu Jul 03 2025 00:02:06 GMT+0000 (Coordinated Universal Time)

1 64384U 25127Q 25183.58335648 -.01569013 00000+0 -18832-1 0 9992 2 64384 43.0003 155.3764 0001304 275.4442 335.2351 15.63127708 4202
UTC large
Height (km)
Speed (km/s)
/
Latitude / Longitude
Inclination (degrees)
Orbital Period (minutes)
Azimuth
Elevation
Range (km)
Doppler Factor

Next 0 passes for location: London (51.5072 / 0.1276)

Sorry there are no passes over London.